This is the latest recevied weather packets stored in our database for station/object DB0FN-10. If no packets are shown the sender has not sent any weather packets the latest 10 day(s).
| Time | Temp. | Humidity | Pressure | Rain* | Wind** | Luminosity | Snow |
|---|---|---|---|---|---|---|---|
| 1787733125 | 25.56° C | 76% | 1022.3 hPa | - | - | - | - |
| 1787732225 | 24.44° C | 75% | 1022.4 hPa | - | - | - | - |
| 1787731325 | 23.89° C | 75% | 1022.3 hPa | - | - | - | - |
| 1787730425 | 24.44° C | 72% | 1022.2 hPa | - | - | - | - |
| 1787729525 | 23.89° C | 72% | 1022 hPa | - | - | - | - |
| 1787728625 | 23.89° C | 78% | 1022 hPa | - | - | - | - |
| 1787727725 | 24.44° C | 74% | 1022 hPa | - | - | - | - |
| 1787726825 | 23.89° C | 72% | 1021.8 hPa | - | - | - | - |
| 1787725924 | 23.89° C | 71% | 1021.9 hPa | - | - | - | - |
| 1787725024 | 23.89° C | 72% | 1021.6 hPa | - | - | - | - |
| 1787724124 | 23.33° C | 74% | 1021.7 hPa | - | - | - | - |
| 1787723224 | 23.33° C | 76% | 1021.5 hPa | - | - | - | - |
| 1787722324 | 23.33° C | 75% | 1021.6 hPa | - | - | - | - |
| 1787721424 | 22.78° C | 79% | 1021.6 hPa | - | - | - | - |
| 1787720524 | 23.33° C | 78% | 1021.3 hPa | - | - | - | - |
| 1787719624 | 23.33° C | 74% | 1021.2 hPa | - | - | - | - |
| 1787718724 | 23.33° C | 70% | 1021.2 hPa | - | - | - | - |
| 1787717824 | 23.33° C | 74% | 1021.2 hPa | - | - | - | - |
| 1787716924 | 23.89° C | 67% | 1021.2 hPa | - | - | - | - |
| 1787716024 | 23.89° C | 63% | 1021 hPa | - | - | - | - |
| 1787715124 | 23.89° C | 63% | 1020.9 hPa | - | - | - | - |
| 1787714223 | 23.89° C | 62% | 1020.8 hPa | - | - | - | - |
| 1787713323 | 23.89° C | 61% | 1020.8 hPa | - | - | - | - |
| 1787712423 | 23.89° C | 64% | 1021 hPa | - | - | - | - |
| 1787711523 | 23.89° C | 64% | 1020.9 hPa | - | - | - | - |
* Rain since midnight (hover to see other rain measurements)
** Current wind speed in m/s (hover to see current wind gust speed)